| time (UTC) | temp C | wind direction | speed KPH | gust KPH | rain 1hr cm | rain 24hr cm | rain mn cm | humidity % | barometer mb |
| 20260505201216 | 28 | 177 | 4.8 | 11.3 | 0.00 | 0.00 | 0.00 | 72 | 1008.4 |
| 20260505200710 | 28 | 163 | 3.2 | 11.3 | 0.00 | 0.00 | 0.00 | 72 | 1008.5 |
| 20260505200205 | 28 | 153 | 3.2 | 11.3 | 0.00 | 0.00 | 0.00 | 71 | 1008.5 |
| 20260505195659 | 28 | 187 | 3.2 | 8.0 | 0.00 | 0.00 | 0.00 | 72 | 1008.5 |
| 20260505195153 | 28 | 180 | 3.2 | 8.0 | 0.00 | 0.00 | 0.00 | 72 | 1008.6 |
| 20260505194647 | 28 | 168 | 3.2 | 8.0 | 0.00 | 0.00 | 0.00 | 72 | 1008.6 |
| 20260505194140 | 28 | 177 | 3.2 | 11.3 | 0.00 | 0.00 | 0.00 | 71 | 1008.7 |
| 20260505193907 | 28 | 205 | 1.6 | 11.3 | 0.00 | 0.00 | 0.00 | 72 | 1008.8 |
| 20260505193359 | 28 | 206 | 3.2 | 12.9 | 0.00 | 0.00 | 0.00 | 73 | 1008.7 |
| 20260505192622 | 27 | 178 | 3.2 | 12.9 | 0.00 | 0.00 | 0.00 | 73 | 1008.8 |
| 20260505192116 | 27 | 301 | 3.2 | 12.9 | 0.00 | 0.00 | 0.00 | 73 | 1008.8 |
| 20260505191611 | 27 | 223 | 4.8 | 12.9 | 0.00 | 0.00 | 0.00 | 73 | 1008.9 |
| 20260505191105 | 27 | 233 | 4.8 | 17.7 | 0.00 | 0.00 | 0.00 | 74 | 1009.0 |
| 20260505190053 | 27 | 202 | 1.6 | 9.7 | 0.00 | 0.00 | 0.00 | 75 | 1009.1 |
| 20260505185817 | 27 | 219 | 1.6 | 12.9 | 0.00 | 0.00 | 0.00 | 74 | 1009.2 |
| 20260505185041 | 27 | 209 | 1.6 | 12.9 | 0.00 | 0.00 | 0.00 | 75 | 1009.5 |
| 20260505184535 | 27 | 244 | 1.6 | 11.3 | 0.00 | 0.00 | 0.00 | 76 | 1009.5 |
| 20260505184029 | 27 | 244 | 1.6 | 11.3 | 0.00 | 0.00 | 0.00 | 76 | 1009.6 |
| 20260505183524 | 26 | 205 | 1.6 | 9.7 | 0.00 | 0.00 | 0.00 | 77 | 1009.7 |
| 20260505183024 | 26 | 259 | 3.2 | 9.7 | 0.00 | 0.00 | 0.00 | 76 | 1009.7 |
| 20260505182522 | 26 | 194 | 3.2 | 9.7 | 0.00 | 0.00 | 0.00 | 77 | 1009.9 |
| 20260505182252 | 26 | 242 | 3.2 | 9.7 | 0.00 | 0.00 | 0.00 | 77 | 1009.9 |
| 20260505181522 | 26 | 223 | 3.2 | 12.9 | 0.00 | 0.00 | 0.00 | 77 | 1010.0 |
| 20260505181022 | 26 | 280 | 3.2 | 12.9 | 0.00 | 0.00 | 0.00 | 79 | 1010.0 |
| 20260505180522 | 26 | 160 | 3.2 | 14.5 | 0.00 | 0.00 | 0.00 | 79 | 1010.0 |
| 20260505180020 | 25 | 307 | 4.8 | 16.1 | 0.00 | 0.00 | 0.00 | 80 | 1010.0 |
| 20260505175750 | 25 | 167 | 3.2 | 16.1 | 0.00 | 0.00 | 0.00 | 80 | 1010.0 |
| 20260505175020 | 25 | 181 | 1.6 | 8.0 | 0.00 | 0.00 | 0.00 | 81 | 1010.0 |
| 20260505174518 | 25 | 231 | 1.6 | 6.4 | 0.00 | 0.00 | 0.00 | 81 | 1010.0 |
| 20260505174018 | 25 | 237 | 1.6 | 6.4 | 0.00 | 0.00 | 0.00 | 81 | 1010.0 |
| 20260505173518 | 25 | 236 | 3.2 | 9.7 | 0.00 | 0.00 | 0.00 | 81 | 1010.0 |
| 20260505173248 | 25 | 241 | 3.2 | 11.3 | 0.00 | 0.00 | 0.00 | 81 | 1010.1 |
| 20260505172514 | 24 | 253 | 3.2 | 11.3 | 0.00 | 0.00 | 0.00 | 83 | 1010.0 |
| 20260505172013 | 24 | 242 | 3.2 | 11.3 | 0.00 | 0.00 | 0.00 | 83 | 1010.1 |
| 20260505171514 | 24 | 242 | 1.6 | 11.3 | 0.00 | 0.00 | 0.00 | 83 | 1010.1 |
| 20260505171014 | 24 | 230 | 1.6 | 11.3 | 0.00 | 0.00 | 0.00 | 85 | 1010.2 |
| 20260505170514 | 23 | 240 | 1.6 | 11.3 | 0.00 | 0.00 | 0.00 | 85 | 1010.2 |
| 20260505170012 | 23 | 292 | 1.6 | 11.3 | 0.00 | 0.00 | 0.00 | 86 | 1010.2 |
| 20260505165511 | 23 | 172 | 3.2 | 11.3 | 0.00 | 0.00 | 0.00 | 87 | 1010.1 |
| 20260505165245 | 23 | 196 | 3.2 | 11.3 | 0.00 | 0.00 | 0.00 | 87 | 1010.2 |
| 20260505164746 | 23 | 194 | 1.6 | 11.3 | 0.00 | 0.00 | 0.00 | 88 | 1010.1 |
| 20260505164243 | 22 | 212 | 1.6 | 9.7 | 0.00 | 0.00 | 0.00 | 89 | 1010.1 |
| 20260505163511 | 22 | 212 | 1.6 | 9.7 | 0.00 | 0.00 | 0.00 | 90 | 1010.1 |
| 20260505163243 | 22 | 173 | 1.6 | 8.0 | 0.00 | 0.00 | 0.00 | 90 | 1010.2 |
| 20260505162511 | 22 | 171 | 3.2 | 8.0 | 0.00 | 0.00 | 0.00 | 91 | 1010.1 |
| 20260505162008 | 22 | 271 | 1.6 | 6.4 | 0.00 | 0.00 | 0.00 | 91 | 1010.3 |
| 20260505161508 | 21 | 277 | 1.6 | 8.0 | 0.00 | 0.00 | 0.00 | 92 | 1010.3 |
| 20260505161007 | 21 | 280 | 3.2 | 8.0 | 0.00 | 0.00 | 0.00 | 92 | 1010.3 |
| 20260505160507 | 21 | 227 | 1.6 | 8.0 | 0.00 | 0.00 | 0.00 | 92 | 1010.3 |
| 20260505152955 | 21 | 269 | 1.6 | 11.3 | 0.00 | 0.00 | 0.00 | 93 | 1010.3 |
| 20260505152449 | 21 | 271 | 1.6 | 11.3 | 0.00 | 0.00 | 0.00 | 93 | 1010.3 |
| 20260505151943 | 21 | 232 | 1.6 | 12.9 | 0.00 | 0.00 | 0.00 | 93 | 1010.3 |
| 20260505151437 | 21 | 259 | 1.6 | 12.9 | 0.00 | 0.00 | 0.00 | 93 | 1010.3 |
| 20260505150931 | 21 | 219 | 1.6 | 9.7 | 0.00 | 0.00 | 0.00 | 93 | 1010.2 |
| 20260505150656 | 21 | 214 | 1.6 | 9.7 | 0.00 | 0.00 | 0.00 | 93 | 1010.1 |
| 20260505140313 | 20 | 160 | 3.2 | 11.3 | 0.00 | 0.00 | 0.00 | 93 | 1010.1 |
| 20260505130213 | 20 | 142 | 3.2 | 12.9 | 0.00 | 0.00 | 0.00 | 92 | 1010.0 |
| 20260505124944 | 20 | 202 | 1.6 | 17.7 | 0.00 | 0.00 | 0.00 | 92 | 1009.9 |
| 20260505124442 | 20 | 242 | 3.2 | 17.7 | 0.00 | 0.00 | 0.00 | 92 | 1009.9 |
| 20260505123711 | 20 | 234 | 3.2 | 14.5 | 0.00 | 0.00 | 0.00 | 92 | 1009.8 |
| 20260505123442 | 20 | 236 | 3.2 | 14.5 | 0.00 | 0.00 | 0.00 | 92 | 1009.7 |
| 20260505122709 | 20 | 146 | 3.2 | 14.5 | 0.00 | 0.00 | 0.00 | 92 | 1009.6 |
| 20260505122209 | 20 | 200 | 3.2 | 14.5 | 0.00 | 0.00 | 0.00 | 92 | 1009.3 |
| 20260505121709 | 20 | 139 | 1.6 | 11.3 | 0.00 | 0.00 | 0.00 | 92 | 1009.3 |
| 20260505121439 | 20 | 224 | 3.2 | 17.7 | 0.00 | 0.00 | 0.00 | 92 | 1009.2 |
| 20260505120941 | 20 | 211 | 3.2 | 17.7 | 0.00 | 0.00 | 0.00 | 91 | 1009.2 |
| 20260505120209 | 20 | 185 | 1.6 | 9.7 | 0.00 | 0.00 | 0.00 | 91 | 1009.1 |
| 20260505115708 | 20 | 184 | 3.2 | 14.5 | 0.00 | 0.00 | 0.00 | 91 | 1009.1 |
| 20260505115207 | 20 | 227 | 3.2 | 14.5 | 0.00 | 0.00 | 0.00 | 91 | 1009.0 |
| 20260505114707 | 20 | 223 | 1.6 | 9.7 | 0.00 | 0.00 | 0.00 | 91 | 1009.0 |
| 20260505114201 | 20 | 243 | 1.6 | 8.0 | 0.00 | 0.00 | 0.00 | 91 | 1009.0 |
| 20260505113655 | 20 | 209 | 3.2 | 11.3 | 0.00 | 0.00 | 0.00 | 91 | 1009.0 |
| 20260505113148 | 20 | 209 | 1.6 | 11.3 | 0.00 | 0.00 | 0.00 | 91 | 1009.0 |
| 20260505112643 | 20 | 196 | 1.6 | 9.7 | 0.00 | 0.00 | 0.00 | 91 | 1008.9 |
| 20260505112137 | 20 | 196 | 3.2 | 9.7 | 0.00 | 0.00 | 0.00 | 91 | 1008.9 |
| 20260505111631 | 20 | 199 | 1.6 | 8.0 | 0.00 | 0.00 | 0.00 | 91 | 1008.9 |
| 20260505111125 | 20 | 206 | 1.6 | 11.3 | 0.00 | 0.00 | 0.00 | 91 | 1009.0 |
| 20260505110619 | 20 | 211 | 1.6 | 11.3 | 0.00 | 0.00 | 0.00 | 91 | 1009.0 |
| 20260505110345 | 20 | 148 | 1.6 | 11.3 | 0.00 | 0.00 | 0.00 | 91 | 1009.0 |
| 20260505102042 | 20 | 200 | 3.2 | 11.3 | 0.00 | 0.00 | 0.00 | 91 | 1009.0 |
| 20260505101543 | 20 | 163 | 3.2 | 11.3 | 0.00 | 0.00 | 0.00 | 91 | 1009.0 |
| 20260505101043 | 20 | 213 | 1.6 | 11.3 | 0.00 | 0.00 | 0.00 | 91 | 1009.0 |
| 20260505100559 | 20 | 192 | 1.6 | 12.9 | 0.00 | 0.00 | 0.00 | 90 | 1009.1 |
| 20260505100043 | 20 | 209 | 3.2 | 12.9 | 0.00 | 0.00 | 0.00 | 91 | 1009.2 |
| 20260505095041 | 20 | 260 | 1.6 | 12.9 | 0.00 | 0.00 | 0.00 | 91 | 1009.1 |
| 20260505094541 | 20 | 222 | 1.6 | 9.7 | 0.00 | 0.00 | 0.00 | 90 | 1009.1 |
| 20260505094041 | 20 | 234 | 3.2 | 12.9 | 0.00 | 0.00 | 0.00 | 90 | 1009.2 |
| 20260505093541 | 20 | 232 | 3.2 | 12.9 | 0.00 | 0.00 | 0.00 | 90 | 1009.2 |
| 20260505093042 | 20 | 206 | 1.6 | 9.7 | 0.00 | 0.00 | 0.00 | 90 | 1009.3 |
| 20260505092541 | 20 | 257 | 1.6 | 16.1 | 0.00 | 0.00 | 0.00 | 90 | 1009.3 |
| 20260505092041 | 20 | 148 | 1.6 | 16.1 | 0.00 | 0.00 | 0.00 | 90 | 1009.5 |
| 20260505091540 | 20 | 260 | 3.2 | 9.7 | 0.00 | 0.00 | 0.00 | 90 | 1009.5 |
| 20260505091041 | 20 | 188 | 3.2 | 14.5 | 0.00 | 0.00 | 0.00 | 90 | 1009.3 |
| 20260505090541 | 20 | 169 | 3.2 | 14.5 | 0.00 | 0.00 | 0.00 | 90 | 1009.3 |
| 20260505090040 | 20 | 200 | 3.2 | 12.9 | 0.00 | 0.00 | 0.00 | 90 | 1009.3 |
| 20260505085540 | 20 | 205 | 3.2 | 11.3 | 0.00 | 0.00 | 0.00 | 90 | 1009.3 |
| 20260505085041 | 20 | 191 | 1.6 | 8.0 | 0.00 | 0.00 | 0.00 | 90 | 1009.3 |
| 20260505084540 | 20 | 188 | 3.2 | 8.0 | 0.00 | 0.00 | 0.00 | 90 | 1009.3 |
| 20260505084040 | 20 | 197 | 3.2 | 11.3 | 0.00 | 0.00 | 0.00 | 90 | 1009.5 |
| 20260505083541 | 20 | 160 | 3.2 | 16.1 | 0.00 | 0.00 | 0.00 | 89 | 1009.3 |
| 20260505082538 | 20 | 136 | 4.8 | 11.3 | 0.00 | 0.00 | 0.00 | 89 | 1009.5 |
| 20260505082038 | 20 | 163 | 4.8 | 12.9 | 0.00 | 0.00 | 0.00 | 89 | 1009.7 |
| 20260505081539 | 20 | 210 | 3.2 | 12.9 | 0.00 | 0.00 | 0.00 | 89 | 1009.7 |
| 20260505081307 | 20 | 186 | 3.2 | 12.9 | 0.00 | 0.00 | 0.00 | 89 | 1009.9 |
| 20260505080536 | 20 | 248 | 4.8 | 17.7 | 0.00 | 0.00 | 0.00 | 89 | 1010.0 |
| 20260505080036 | 20 | 150 | 4.8 | 17.7 | 0.00 | 0.00 | 0.00 | 89 | 1009.9 |
| 20260505075537 | 20 | 252 | 3.2 | 12.9 | 0.00 | 0.00 | 0.00 | 89 | 1009.9 |
| 20260505075036 | 20 | 171 | 3.2 | 12.9 | 0.00 | 0.00 | 0.00 | 89 | 1010.1 |
| 20260505074806 | 20 | 240 | 3.2 | 12.9 | 0.00 | 0.00 | 0.00 | 89 | 1010.2 |
| 20260505074034 | 20 | 226 | 1.6 | 9.7 | 0.00 | 0.00 | 0.00 | 89 | 1010.2 |
| 20260505073528 | 20 | 235 | 3.2 | 11.3 | 0.00 | 0.00 | 0.00 | 89 | 1010.1 |
| 20260505072516 | 20 | 153 | 3.2 | 14.5 | 0.00 | 0.00 | 0.00 | 89 | 1010.5 |
| 20260505072011 | 20 | 171 | 3.2 | 14.5 | 0.00 | 0.00 | 0.00 | 88 | 1010.5 |
| 20260505071504 | 20 | 229 | 3.2 | 12.9 | 0.00 | 0.00 | 0.00 | 88 | 1010.5 |
| 20260505071228 | 20 | 229 | 3.2 | 16.1 | 0.00 | 0.00 | 0.00 | 88 | 1010.6 |
| 20260505070452 | 20 | 206 | 1.6 | 16.1 | 0.00 | 0.00 | 0.00 | 88 | 1010.7 |
| 20260505065946 | 20 | 227 | 3.2 | 8.0 | 0.00 | 0.00 | 0.00 | 88 | 1010.8 |
| 20260505065440 | 21 | 273 | 3.2 | 14.5 | 0.00 | 0.00 | 0.00 | 88 | 1010.9 |
| 20260505065206 | 21 | 143 | 4.8 | 17.7 | 0.00 | 0.00 | 0.00 | 88 | 1010.7 |
| 20260505064427 | 21 | 211 | 3.2 | 16.1 | 0.00 | 0.00 | 0.00 | 88 | 1010.8 |
| 20260505063921 | 21 | 124 | 3.2 | 16.1 | 0.00 | 0.00 | 0.00 | 87 | 1010.9 |
| 20260505063416 | 21 | 159 | 3.2 | 12.9 | 0.00 | 0.00 | 0.00 | 87 | 1011.0 |
| 20260505062910 | 21 | 134 | 3.2 | 11.3 | 0.00 | 0.00 | 0.00 | 87 | 1011.0 |
| 20260505062404 | 21 | 177 | 3.2 | 14.5 | 0.00 | 0.00 | 0.00 | 87 | 1010.9 |
| 20260505061858 | 21 | 196 | 3.2 | 14.5 | 0.00 | 0.00 | 0.00 | 87 | 1011.0 |
| 20260505061352 | 21 | 250 | 3.2 | 12.9 | 0.00 | 0.00 | 0.00 | 87 | 1010.9 |
| 20260505060845 | 21 | 238 | 3.2 | 11.3 | 0.00 | 0.00 | 0.00 | 87 | 1011.1 |
| 20260505060611 | 21 | 167 | 4.8 | 12.9 | 0.00 | 0.00 | 0.00 | 86 | 1011.1 |
| 20260505060106 | 21 | 159 | 4.8 | 17.7 | 0.00 | 0.00 | 0.00 | 86 | 1011.2 |
| 20260505055600 | 21 | 169 | 3.2 | 17.7 | 0.00 | 0.00 | 0.00 | 86 | 1011.3 |
| 20260505054822 | 21 | 217 | 4.8 | 14.5 | 0.00 | 0.00 | 0.00 | 86 | 1011.3 |
| 20260505054317 | 21 | 222 | 4.8 | 14.5 | 0.00 | 0.00 | 0.00 | 86 | 1011.4 |
| 20260505053812 | 21 | 205 | 4.8 | 11.3 | 0.00 | 0.00 | 0.00 | 86 | 1011.5 |
| 20260505053304 | 21 | 159 | 4.8 | 20.9 | 0.00 | 0.00 | 0.00 | 86 | 1011.4 |
| 20260505052758 | 21 | 175 | 4.8 | 20.9 | 0.00 | 0.00 | 0.00 | 86 | 1011.3 |
| 20260505052252 | 21 | 202 | 4.8 | 12.9 | 0.00 | 0.00 | 0.00 | 86 | 1011.4 |
| 20260505051746 | 21 | 159 | 3.2 | 14.5 | 0.00 | 0.00 | 0.00 | 86 | 1011.2 |
| 20260505051239 | 21 | 169 | 3.2 | 14.5 | 0.00 | 0.00 | 0.00 | 85 | 1011.2 |
| 20260505050733 | 21 | 119 | 4.8 | 16.1 | 0.00 | 0.00 | 0.00 | 85 | 1011.3 |
| 20260505050458 | 21 | 189 | 4.8 | 16.1 | 0.00 | 0.00 | 0.00 | 85 | 1011.3 |
| 20260505041718 | 22 | 222 | 3.2 | 9.7 | 0.00 | 0.00 | 0.00 | 82 | 1011.3 |
| 20260505041216 | 22 | 175 | 3.2 | 12.9 | 0.00 | 0.00 | 0.00 | 82 | 1011.3 |
| 20260505040713 | 22 | 195 | 3.2 | 12.9 | 0.00 | 0.00 | 0.00 | 81 | 1011.3 |
| 20260505040213 | 22 | 163 | 3.2 | 12.9 | 0.00 | 0.00 | 0.00 | 81 | 1011.2 |
| 20260505035945 | 22 | 196 | 3.2 | 12.9 | 0.00 | 0.00 | 0.00 | 81 | 1011.2 |
| 20260505035213 | 22 | 213 | 3.2 | 11.3 | 0.00 | 0.00 | 0.00 | 80 | 1011.2 |
| 20260505034714 | 22 | 156 | 3.2 | 19.3 | 0.00 | 0.00 | 0.00 | 79 | 1011.4 |
| 20260505034214 | 22 | 150 | 4.8 | 19.3 | 0.00 | 0.00 | 0.00 | 79 | 1011.2 |
| 20260505033945 | 22 | 150 | 3.2 | 14.5 | 0.00 | 0.00 | 0.00 | 79 | 1011.1 |
| 20260505033212 | 22 | 157 | 3.2 | 14.5 | 0.00 | 0.00 | 0.00 | 78 | 1011.1 |
| 20260505032941 | 22 | 226 | 3.2 | 14.5 | 0.00 | 0.00 | 0.00 | 78 | 1010.9 |
| 20260505032212 | 22 | 150 | 3.2 | 14.5 | 0.00 | 0.00 | 0.00 | 78 | 1011.0 |
| 20260505031706 | 22 | 177 | 3.2 | 12.9 | 0.00 | 0.00 | 0.00 | 77 | 1011.0 |
| 20260505031159 | 22 | 197 | 1.6 | 8.0 | 0.00 | 0.00 | 0.00 | 77 | 1010.9 |
| 20260505030653 | 23 | 200 | 1.6 | 8.0 | 0.00 | 0.00 | 0.00 | 77 | 1010.9 |
| 20260505030147 | 23 | 199 | 1.6 | 8.0 | 0.00 | 0.00 | 0.00 | 76 | 1011.1 |
| 20260505025641 | 23 | 192 | 1.6 | 6.4 | 0.00 | 0.00 | 0.00 | 76 | 1011.0 |
| 20260505025407 | 23 | 192 | 1.6 | 6.4 | 0.00 | 0.00 | 0.00 | 76 | 1011.1 |
| 20260505024629 | 23 | 189 | 1.6 | 6.4 | 0.00 | 0.00 | 0.00 | 75 | 1011.1 |
| 20260505024123 | 23 | 192 | 1.6 | 4.8 | 0.00 | 0.00 | 0.00 | 75 | 1011.0 |
| 20260505023617 | 23 | 192 | 1.6 | 8.0 | 0.00 | 0.00 | 0.00 | 75 | 1011.1 |
| 20260505023112 | 23 | 192 | 1.6 | 8.0 | 0.00 | 0.00 | 0.00 | 75 | 1011.1 |
| 20260505022606 | 23 | 191 | 1.6 | 6.4 | 0.00 | 0.00 | 0.00 | 74 | 1011.0 |
| 20260505022100 | 23 | 191 | 0.0 | 6.4 | 0.00 | 0.00 | 0.00 | 74 | 1010.9 |
| 20260505021553 | 23 | 190 | 0.0 | 6.4 | 0.00 | 0.00 | 0.00 | 74 | 1010.9 |
| 20260505021047 | 23 | 190 | 0.0 | 1.6 | 0.00 | 0.00 | 0.00 | 74 | 1010.9 |
| 20260505020541 | 23 | 190 | 0.0 | 4.8 | 0.00 | 0.00 | 0.00 | 73 | 1010.9 |
| 20260505020036 | 23 | 190 | 1.6 | 6.4 | 0.00 | 0.00 | 0.00 | 73 | 1010.7 |
| 20260505015530 | 23 | 190 | 1.6 | 6.4 | 0.00 | 0.00 | 0.00 | 72 | 1010.6 |
| 20260505015024 | 23 | 190 | 1.6 | 8.0 | 0.00 | 0.00 | 0.00 | 72 | 1010.7 |
| 20260505014517 | 23 | 190 | 1.6 | 8.0 | 0.00 | 0.00 | 0.00 | 72 | 1010.7 |
| 20260505014011 | 24 | 189 | 1.6 | 12.9 | 0.00 | 0.00 | 0.00 | 72 | 1010.6 |
| 20260505013736 | 24 | 187 | 3.2 | 12.9 | 0.00 | 0.00 | 0.00 | 71 | 1010.6 |
| 20260505013231 | 24 | 225 | 3.2 | 8.0 | 0.00 | 0.00 | 0.00 | 71 | 1010.5 |
| 20260505012725 | 24 | 161 | 1.6 | 8.0 | 0.00 | 0.00 | 0.00 | 71 | 1010.6 |
| 20260505012219 | 24 | 157 | 1.6 | 9.7 | 0.00 | 0.00 | 0.00 | 71 | 1010.6 |
| 20260505011714 | 25 | 158 | 3.2 | 9.7 | 0.00 | 0.00 | 0.00 | 70 | 1010.5 |
| 20260505010936 | 25 | 232 | 1.6 | 9.7 | 0.00 | 0.00 | 0.00 | 70 | 1010.5 |
| 20260505010429 | 25 | 192 | 1.6 | 8.0 | 0.00 | 0.00 | 0.00 | 69 | 1010.4 |
| 20260505005923 | 25 | 202 | 3.2 | 16.1 | 0.00 | 0.00 | 0.00 | 69 | 1010.5 |
| 20260505005649 | 25 | 193 | 3.2 | 16.1 | 0.00 | 0.00 | 0.00 | 69 | 1010.6 |
| 20260505004915 | 25 | 204 | 3.2 | 11.3 | 0.00 | 0.00 | 0.00 | 69 | 1010.6 |
| 20260505004415 | 25 | 281 | 3.2 | 11.3 | 0.00 | 0.00 | 0.00 | 68 | 1010.5 |
| 20260505003915 | 25 | 242 | 3.2 | 11.3 | 0.00 | 0.00 | 0.00 | 68 | 1010.4 |
| 20260505003646 | 25 | 223 | 3.2 | 11.3 | 0.00 | 0.00 | 0.00 | 67 | 1010.2 |
| 20260505002915 | 26 | 181 | 3.2 | 12.9 | 0.00 | 0.00 | 0.00 | 67 | 1010.1 |
| 20260505002647 | 26 | 285 | 3.2 | 12.9 | 0.00 | 0.00 | 0.00 | 67 | 1010.1 |
| 20260505001915 | 26 | 212 | 3.2 | 9.7 | 0.00 | 0.00 | 0.00 | 66 | 1010.2 |
| 20260505001415 | 26 | 159 | 3.2 | 12.9 | 0.00 | 0.00 | 0.00 | 66 | 1010.3 |
| 20260505000915 | 26 | 221 | 3.2 | 12.9 | 0.00 | 0.00 | 0.00 | 66 | 1010.3 |
| 20260505000418 | 26 | 161 | 3.2 | 14.5 | 0.00 | 0.00 | 0.00 | 66 | 1010.4 |
| 20260504235913 | 26 | 221 | 4.8 | 19.3 | 0.00 | 0.00 | 0.00 | 66 | 1010.4 |
| 20260504235413 | 26 | 287 | 6.4 | 19.3 | 0.00 | 0.00 | 0.00 | 65 | 1010.4 |
| 20260504234913 | 26 | 108 | 4.8 | 17.7 | 0.00 | 0.00 | 0.00 | 65 | 1010.4 |
| 20260504234643 | 26 | 131 | 4.8 | 11.3 | 0.00 | 0.00 | 0.00 | 66 | 1010.6 |
| 20260504233913 | 26 | 207 | 4.8 | 16.1 | 0.00 | 0.00 | 0.00 | 66 | 1010.6 |
| 20260504233411 | 26 | 158 | 4.8 | 16.1 | 0.00 | 0.00 | 0.00 | 65 | 1010.6 |
| 20260504232911 | 26 | 150 | 4.8 | 14.5 | 0.00 | 0.00 | 0.00 | 65 | 1010.7 |
| 20260504232409 | 26 | 198 | 4.8 | 16.1 | 0.00 | 0.00 | 0.00 | 66 | 1010.8 |
| 20260504232141 | 26 | 184 | 4.8 | 16.1 | 0.00 | 0.00 | 0.00 | 65 | 1010.8 |
| 20260504231643 | 26 | 152 | 4.8 | 16.1 | 0.00 | 0.00 | 0.00 | 66 | 1010.9 |
| 20260504230909 | 26 | 191 | 4.8 | 16.1 | 0.00 | 0.00 | 0.00 | 66 | 1011.0 |
| 20260504230409 | 26 | 163 | 4.8 | 14.5 | 0.00 | 0.00 | 0.00 | 66 | 1011.1 |
| 20260504225908 | 26 | 167 | 6.4 | 16.1 | 0.00 | 0.00 | 0.00 | 66 | 1011.1 |
| 20260504225409 | 26 | 173 | 6.4 | 16.1 | 0.00 | 0.00 | 0.00 | 65 | 1011.2 |
| 20260504224909 | 26 | 170 | 4.8 | 16.1 | 0.00 | 0.00 | 0.00 | 65 | 1011.2 |
| 20260504224409 | 26 | 211 | 3.2 | 12.9 | 0.00 | 0.00 | 0.00 | 65 | 1011.3 |
| 20260504223909 | 26 | 283 | 4.8 | 16.1 | 0.00 | 0.00 | 0.00 | 65 | 1011.5 |
| 20260504223639 | 26 | 192 | 4.8 | 16.1 | 0.00 | 0.00 | 0.00 | 65 | 1011.5 |
| 20260504222909 | 26 | 130 | 4.8 | 12.9 | 0.00 | 0.00 | 0.00 | 65 | 1011.6 |
| 20260504222409 | 26 | 180 | 4.8 | 17.7 | 0.00 | 0.00 | 0.00 | 66 | 1011.5 |
| 20260504221914 | 26 | 131 | 6.4 | 17.7 | 0.00 | 0.00 | 0.00 | 65 | 1011.5 |
| 20260504221409 | 26 | 163 | 6.4 | 17.7 | 0.00 | 0.00 | 0.00 | 64 | 1011.5 |
| 20260504220908 | 26 | 266 | 3.2 | 12.9 | 0.00 | 0.00 | 0.00 | 65 | 1011.5 |
| 20260504220408 | 26 | 195 | 3.2 | 12.9 | 0.00 | 0.00 | 0.00 | 64 | 1011.5 |
| 20260504215905 | 26 | 181 | 4.8 | 16.1 | 0.00 | 0.00 | 0.00 | 65 | 1011.6 |
| 20260504215359 | 26 | 229 | 6.4 | 16.1 | 0.00 | 0.00 | 0.00 | 65 | 1011.5 |
| 20260504214854 | 26 | 157 | 4.8 | 14.5 | 0.00 | 0.00 | 0.00 | 66 | 1011.6 |
| 20260504214624 | 26 | 179 | 4.8 | 14.5 | 0.00 | 0.00 | 0.00 | 66 | 1011.6 |
| 20260504213852 | 26 | 121 | 3.2 | 12.9 | 0.00 | 0.00 | 0.00 | 66 | 1011.7 |
| 20260504213350 | 26 | 175 | 3.2 | 16.1 | 0.00 | 0.00 | 0.00 | 67 | 1011.8 |
| 20260504212851 | 26 | 128 | 6.4 | 19.3 | 0.00 | 0.00 | 0.00 | 67 | 1011.8 |
| 20260504212351 | 26 | 169 | 8.0 | 19.3 | 0.00 | 0.00 | 0.00 | 67 | 1011.9 |
| 20260504211849 | 26 | 136 | 6.4 | 17.7 | 0.00 | 0.00 | 0.00 | 67 | 1012.0 |
| 20260504211349 | 25 | 155 | 4.8 | 19.3 | 0.00 | 0.00 | 0.00 | 67 | 1012.1 |
| 20260504210849 | 25 | 190 | 4.8 | 19.3 | 0.00 | 0.00 | 0.00 | 67 | 1012.4 |
| 20260504210349 | 26 | 198 | 4.8 | 12.9 | 0.00 | 0.00 | 0.00 | 67 | 1012.4 |
| 20260504205848 | 26 | 254 | 4.8 | 16.1 | 0.00 | 0.00 | 0.00 | 67 | 1012.4 |
| 20260504205346 | 25 | 172 | 4.8 | 20.9 | 0.00 | 0.00 | 0.00 | 67 | 1012.7 |
| 20260504204846 | 25 | 248 | 6.4 | 20.9 | 0.00 | 0.00 | 0.00 | 67 | 1012.8 |
| 20260504204346 | 25 | 232 | 4.8 | 17.7 | 0.00 | 0.00 | 0.00 | 67 | 1012.7 |
| 20260504203847 | 26 | 235 | 4.8 | 12.9 | 0.00 | 0.00 | 0.00 | 67 | 1012.8 |
| 20260504203349 | 26 | 209 | 4.8 | 11.3 | 0.00 | 0.00 | 0.00 | 67 | 1012.9 |
| 20260504202845 | 26 | 252 | 4.8 | 12.9 | 0.00 | 0.00 | 0.00 | 67 | 1013.0 |
| 20260504202345 | 26 | 269 | 4.8 | 16.1 | 0.00 | 0.00 | 0.00 | 67 | 1013.1 |
| 20260504201844 | 26 | 197 | 4.8 | 16.1 | 0.00 | 0.00 | 0.00 | 66 | 1013.1 |